www.pogodaiklimat.ru

Погода и климат >> Архив погоды >> Марокко >> Нуасер


ПОГОДА в Нуасере

  • Прогноз погоды в Нуасере
  • Монитор погоды в Нуасере

АРХИВ ПОГОДЫ в Нуасере

Время (UTC), дата Ветер
(напр.,м/с)
 
Видим.   Явления Облачность Т
(С)
Тd
(С)
f
(%)
Тe
(С)
Тes
(С)
Комфортность P
(гПа)
Po
(гПа)
Тmin
(С)
Tmax
(С)
R
(мм)
R24
(мм)
S
(см)
12 15.08 С 12 10 км ясно +31.9 +19.2 47 +37 +37 очень
душно
1015.5 992.3
15 15.08 С 14 10 км ясно +31.8 +16.5 40 +35 +35 очень
душно
1014.8 991.6
18 15.08 С 16 10 км 3/3 600 м
[St]
+27.8 +20.1 63 +34 +34 очень
душно
1014.7 991.2 +32.8
21 15.08 штиль 0 10 км 3/3 600 м
[Sc]
+22.5 +22.5 100 +30 +30 очень
душно
1016.8 992.9
00 16.08 штиль 0 8000 м 3/3 600 м
[Sc]
+21.3 +21.3 100 +27 +27 душно 1016.7 992.7
03 16.08 штиль 0 2200 м дымка 3/3 600 м
[Sc]
+20.3 +20.3 100 +24 +24 комфорт 1016.0 991.9
06 16.08 штиль 0 4400 м дымка 8/8 90 м
[St]
+19.2 +19.2 100 +21 +21 комфорт 1016.3 992.1 +19.2
09 16.08 В 5 10 км {дымка} 5/5
[St]
+26.2 +19.6 67 +32 +34 очень
душно
1015.8 992.2
12 16.08 С 12 10 км ясно +33.7 +16.5 36 +37 +37 очень
душно
1014.5 991.5
15 16.08 С 15 10 км ясно +32.3 +17.4 41 +36 +36 очень
душно
1013.2 990.1
18 16.08 С 11 10 км ясно +28.6 +21.9 67 +37 +37 очень
душно
1013.5 990.1 +33.9
21 16.08 С 7 10 км 3/3 480 м
[Sc]
+22.4 +21.9 97 +30 +30 очень
душно
1015.6 991.7
00 17.08 С 6 5000 м дымка 5/5 180 м
[St]
+21.4 +21.0 98 +27 +27 душно 1015.7 991.7
03 17.08 штиль 0 5000 м дымка 5/5 120 м
[St]
+20.5 +20.5 100 +25 +25 комфорт 1014.7 990.7
06 17.08 штиль 0 800 м туман 6/6 90 м
[St]
+19.7 +19.7 100 +23 +23 комфорт 1014.8 990.7 +19.3
09 17.08 СВ 4 9000 м {морось} 4/4 150 м
[St]
+23.4 +21.7 90 +32 +35 очень
душно
1014.8 991.0
12 17.08 С 10 10 км {осадки, дымка} ясно +33.6 +12.6 28 +34 +35 очень
жарко
1013.0 990.0
15 17.08 СЗ 13 10 км ясно +31.7 +16.8 41 +35 +35 очень
душно
1012.1 989.0
21 17.08 10 км 5/5 300 м
[St]
+22.5 +22.5 100 1015.2 991.3
00 18.08 штиль 0 10 км 5/5 300 м
[St]
+21.4 +20.4 94 +27 +27 душно 1015.8 991.8
03 18.08 СЗ 4 10 км 5/5 300 м
[St]
+20.1 +20.1 100 +24 +24 комфорт 1014.8 990.7
06 18.08 З 1 10 км 8/8 300 м
[St]
+19.7 +19.7 100 +24 +24 комфорт 1015.3 991.2 +19.7
09 18.08 штиль 0 10 км ясно +23.0 +20.1 84 +30 +41 очень
душно
1016.2 992.3
12 18.08 СЗ 5 10 км ясно +29.7 +17.5 48 +34 +44 очень
душно
1015.6 992.3
15 18.08 С 13 10 км ясно +28.4 +17.9 53 +33 +33 очень
душно
1014.8 991.4
18 18.08 С 14 10 км ясно +25.4 +19.1 68 +30 +30 душно 1014.5 990.9 +30.3
21 18.08 С 4 10 км 5/5 300 м
[St]
+21.4 +21.2 99 +27 +27 душно 1017.0 993.0
00 19.08 СВ 4 10 км 5/5 300 м
[St]
+20.1 +20.1 100 +24 +24 комфорт 1017.0 992.9
03 19.08 С 7 10 км 5/5 240 м
[St]
+20.4 +20.4 100 +24 +24 комфорт 1016.3 992.2
06 19.08 С 5 10 км 5/5 240 м
[St]
+21.0 +19.8 93 +26 +26 душно 1016.2 992.2 +19.6
09 19.08 С 3 10 км 3/3 480 м
[Sc]
+23.5 +20.0 81 +29 +34 душно 1016.5 992.7
12 19.08 С 10 10 км ясно +27.9 +18.0 55 +32 +33 душно 1015.6 992.1
15 19.08 С 13 10 км 3/3 600 м
[Sc]
+28.6 +18.1 53 +33 +33 очень
душно
1014.6 991.2
18 19.08 С 12 10 км 3/3 600 м
[Sc]
+24.9 +20.2 75 +31 +31 очень
душно
1015.4 991.7 +29.5
21 19.08 С 8 10 км 6/6 400 м
[St]
+22.5 +21.1 92 +30 +30 очень
душно
1017.5 993.6
00 20.08 С 10 10 км 6/6 360 м
[St]
+21.9 +20.9 94 +28 +28 душно 1017.8 993.8
03 20.08 С 6 10 км 6/6 400 м
[St]
+20.1 +20.1 100 +24 +24 комфорт 1016.6 992.5
06 20.08 штиль 0 10 км 4/4 360 м
[St]
+19.3 +19.3 100 +21 +21 комфорт 1016.6 992.4 +19.2
09 20.08 С 4 10 км ясно +22.8 +16.1 66 +27 +33 душно 1017.0 993.1
12 20.08 С 10 10 км ясно +26.9 +17.4 56 +31 +32 душно 1016.1 992.5
15 20.08 СЗ 12 10 км ясно +27.6 +15.6 48 +31 +31 душно 1015.0 991.5
18 20.08 С 12 10 км 3/3 480 м
[Sc]
+24.6 +19.0 71 +30 +30 очень
душно
1014.9 991.2 +27.9
21 20.08 С 8 10 км 4/4 480 м
[Sc]
+21.1 +20.1 94 +26 +26 душно 1017.0 993.0
00 21.08 С 6 10 км 4/4 480 м
[Sc]
+20.5 +19.7 95 +24 +24 комфорт 1016.7 992.6
03 21.08 С 1 10 км 4/4 480 м
[Sc]
+19.4 +19.4 100 +23 +23 комфорт 1015.8 991.6
06 21.08 штиль 0 10 км 5/5 300 м
[St]
+17.3 +17.3 100 +17 +17 1016.5 992.2 +17.1
09 21.08 штиль 0 10 км 3/3 300 м
[St]
+21.9 +19.6 87 +27 +35 душно 1016.2 992.2
12 21.08 С 8 10 км ясно +28.2 +18.0 54 +33 +36 очень
душно
1014.7 991.3
15 21.08 СЗ 12 10 км ясно +27.6 +18.0 56 +32 +32 очень
душно
1013.5 990.1
18 21.08 С 10 10 км ясно +26.9 +10.2 35 +27 +27 жарко 1013.8 990.3 +29.0
21 21.08 С 4 10 км ясно +22.5 +18.9 80 +28 +28 душно 1015.1 991.2
00 22.08 С 4 10 км ясно +19.4 +19.0 98 +22 +22 комфорт 1014.7 990.6
03 22.08 СВ 6 300 м туман 9/9 90 м
[St]
+19.2 +19.2 100 +21 +21 комфорт 1013.2 989.1
06 22.08 штиль 0 4000 м дымка {туман} 6/6 90 м
[St]
+17.7 +17.7 100 +18 +18 1012.9 988.7 +17.2
09 22.08 СВ 4 10 км {дымка} ясно +23.8 +17.8 69 +28 +33 душно 1012.6 988.9

 

Местоположение метеостанции Нуасер (Марокко): широта 33.37 долгота -7.58 высота над уровнем моря 206 м.

В архиве по умолчанию представлена погода в Нуасере за последнюю неделю. Архивные данные за месяц целиком и за предыдущие месяцы, начиная с января 2011 года, Вы можете получить, выбрав интересующий диапазон дат из раскрывающегося списка и нажав кнопку "Ввод!".


*Определитесь, кто Вы:
робот инопланетянин человек

Внимание! Время в таблицах - всемирное. Для получения местного времени необходимо прибавить поправку, которая равна 0 ч.

Смотрите также архив погоды в соседних городах и на ближайших метеорологических станциях:

Погода в Касабланке (Марокко) (24 км)
Погода в Мохаммедии (Марокко) (42 км)
Погода в Сеттате (Марокко) (47 км)
Погода в Хурибге (Марокко) (80 км)
Погода в Рабате (Марокко) (106 км)
Погода в Кенитре (Марокко) (137 км)
Погода в Касба-Тадле (Марокко) (153 км)
Погода в Бени-Меллале (Марокко) (157 км)
Погода в Сафи (Марокко) (196 км)
Погода в Мекнесе (Марокко) (198 км)

Пояснения к столбцам:

Ветер - указаны скорость ветра в м/с - средняя за 10 мин, порывы в срок и между сроками (в фигурных скобках) и направление, откуда дует ветер: С - северный, СВ - северо-восточный, В - восточный, ЮВ - юго-восточный, Ю - южный, ЮЗ - юго-западный, З - западный, СЗ - северо-западный.
Видимость - горизонтальная дальность видимости в метрах или километрах. При видимости от 1 до 10 км при отсутствии осадков обычно наблюдается дымка, при ухудшении видимости до 1 км и менее - туман. В сухую погоду видимость может ухудшаться дымом, пылью или мглою.
Явления - указаны атмосферные явления, наблюдавшиеся в срок или в последний час перед сроком; фигурными скобками обозначены явления, наблюдавшиеся между сроками (за 1-3 часа до срока); квадратными скобками обозначены град или гололедные отложения с указанием их диаметра в мм.
Облачность - указаны через наклонную черту общая и нижняя облачность в баллах и высота нижней границы облаков в метрах; квадратными скобками обозначены формы облаков: Ci - перистые, Cs - перисто-слоистые, Cc - перисто-кучевые, Ac - высококучевые, As - высокослоистые, Sc - слоисто-кучевые, Ns - слоисто-дождевые, Cu - кучевые, Cb - кучево-дождевые. Подробнее классификацию облаков см. в Атласе облаков (PDF).
T - Температура воздуха - температура, измеренная на высоте 2 м над землей.
Td - Температура точки росы - температура, при понижении до которой содержащийся в воздухе водяной пар достигнет насыщения.
f - Относительная влажность воздуха - влажноcть воздуха, измеренная на высоте 2 м над землей.
Te - Эффективная температура - температура, которую ощущает одетый по сезону человек в тени. Характеристика душности погоды. При расчете учитывается влияние влажности воздуха и скорости ветра на теплоощущения человека.
Tes - Эффективная температура на солнце - температура, которую ощущает человек, с поправкой на солнечный нагрев. Характеристика знойности погоды. Зависит от высоты солнца над горизонтом, облачности и скорости ветра. Ночью, в пасмурную погоду, а также при ветре 12 м/с и более поправка равна нулю.
P - Атмосферное давление - приведенное к уровню моря атмосферное давление.
Po - Атмосферное давление - измеренное на уровне метеостанции атмосферное давление.
Tmin - Минимальная температура - минимум температуры воздуха на высоте 2 м над землей.
Tmax - Максимальная температура - максимум температуры воздуха на высоте 2 м над землей.
R - Количество осадков - Количество выпавших осадков за период времени, мм. При наведении курсора мыши на число - период времени, за который выпало указанное количество осадков.
R24 - Количество осадков - Количество выпавших осадков за 24 часа, мм.
S - Снежный покров - Высота снежного покрова, см. При наведении курсора мыши на число - состояние снежного покрова и степень покрытия местности в баллах.